Regional Weather Roundup
Issued by NWS State College, PA

Home | Current Version | Previous Version | Text Only | Print | Product List | Glossary Off
Versions: 1 2 3 4 5 6 7 8 9 10 11 12 13 14 15 16 17 18 19 20 21 22 23 24 25 26 27 28 29 30 31 32 33 34 35 36 37 38 39 40 41 42 43 44 45 46 47 48 49 50

000
ASUS41 KCTP 261403
RWRCTP

REGIONAL WEATHER ROUNDUP
NATIONAL WEATHER SERVICE STATE COLLEGE PA
900 AM EST WED NOV 26 2014

Note: "fair" indicates few or no clouds below 12,000 feet with no
significant weather and/or obstructions to visibility.

* = STATION THAT DOES NOT REPORT PRECIPITATION /E.G. RAIN...SNOW...ETC/
    THUNDER OR FOG.

PAZ002>004-007>009-013>016-020>023-029>032-261500-
WESTERN PENNSYLVANIA

CITY           SKY/WX    TMP DP  RH WIND       PRES   REMARKS
ERIE           CLOUDY    35  26  69 NE6       30.13F
MEADVILLE      CLOUDY    31  24  75 N6        30.09F
FRANKLIN*      CLOUDY    30  21  69 NE7       30.08F
NEW CASTLE       N/A     31  26  81 CALM      30.11F
BEAVER COUNTY  CLOUDY    32  27  80 N3        30.08F
BUTLER*        CLOUDY    30  27  86 N8        30.08S
PITTSBURGH INT CLOUDY    32  25  75 NE8       30.05F
PITTSBURGH     CLOUDY    32  24  72 NW7       30.04F
INDIANA*       MOSUNNY   32  30  93 CALM      30.09R FOG
LATROBE        CLOUDY    36  30  80 CALM      30.08F
WASHINGTON CO* CLOUDY    32  25  74 NE5       30.06S
$$

PAZ004>006-010>012-017>019-024>028-033>037-041-042-045-046-049>053-261500-
CENTRAL PENNSYLVANIA

CITY           SKY/WX    TMP DP  RH WIND       PRES   REMARKS
BRADFORD       CLOUDY    30  23  75 NE7       30.05R
DUBOIS         CLOUDY    31  24  75 E7        30.03F
CLEARFIELD     CLOUDY    31  24  75 NE5       30.06F
JOHNSTOWN      SNOW      29  27  92 E5        29.99F VSB 1/2
ALTOONA        SNOW      31  30  96 NE6       30.07R VSB 1/2
STATE COLLEGE  LGT SNOW  32  28  86 NE7       30.07F
WILLIAMSPORT   CLOUDY    36  29  75 CALM      30.13S
SELINSGROVE    LGT SNOW  33  32  96 N3        30.11F VSB 3/4
FT INDIANTOWN  MIX PCPN  35  33  94 NE6       30.10S FOG
CAPITAL CITY   RAIN      36  33  89 N5        30.12F FOG
HARRISBURG     LGT RAIN  36  33  89 NE6       30.12R FOG
YORK           RAIN      37  35  92 NE8       30.09S FOG
$$

PAZ038>040-043-044-047-048-054-055-060>062-067>071-261500-
EASTERN PENNSYLVANIA

CITY           SKY/WX    TMP DP  RH WIND       PRES   REMARKS
SCRANTON       LGT SNOW  34  31  88 VRB5      30.12R VSB 3/4
MOUNT POCONO   SNOW      31  29  92 NE5       30.07R VSB 1/4
ALLENTOWN      RAIN      36  32  87 NE8       30.12R FOG
QUAKERTOWN*    CLOUDY    34  32  93 N3        30.11R
READING        RAIN      36  33  89 N7        30.09F FOG
LANCASTER      RAIN      34  32  92 NE12      30.07F FOG
COATESVILLE    HVY RAIN  37  36  93 N8        30.09R
POTTSTOWN      HVY RAIN  36  33  89 N9        30.11S FOG
BLUE BELL      CLOUDY    37  36  93 NE5       30.09R
DOYLESTOWN     RAIN      36  35  96 NE9       30.09R
WILLOW GROVE   NOT AVBL
NORTH PHILA    RAIN      40  35  83 E14       30.11R
PHILADELPHIA   RAIN      40  37  89 NE14G22   30.12R FOG
$$



USA.gov is the U.S. government's official web portal to all federal, state and local government web resources and services.